FENGYUN 2H

Last updated on Sun Apr 12 2026 00:02:27 GMT+0000 (Coordinated Universal Time)

1 43491U 18050A 26101.53637745 -.00000124 00000+0 00000+0 0 9991 2 43491 2.8589 79.8341 0001374 156.8714 235.2219 1.00276550 28778
UTC large
Height (km)
Speed (km/s)
/
Latitude / Longitude
Inclination (degrees)
Orbital Period (minutes)
Azimuth
Elevation
Range (km)
Doppler Factor

Next 0 passes for location: London (51.5072 / 0.1276)

Sorry there are no passes over London.
FENGYUN 2H